TimeMDT,TemperatureF,Dew PointF,Humidity,Sea Level PressureIn,VisibilityMPH,Wind Direction,Wind SpeedMPH,Gust SpeedMPH,PrecipitationIn,Events,Conditions,WindDirDegrees,DateUTC
12:15 AM,53.1,19.8,27,30.07,10.0,West,5.8,-,N/A,,Overcast,280,2012-11-03 06:15:00
12:35 AM,51.4,19.8,29,30.08,10.0,NNW,4.6,-,N/A,,Mostly Cloudy,340,2012-11-03 06:35:00
12:55 AM,50.9,21.2,31,30.08,10.0,NW,5.8,-,N/A,,Overcast,310,2012-11-03 06:55:00
1:15 AM,52.7,20.3,28,30.08,10.0,NNW,4.6,-,N/A,,Overcast,330,2012-11-03 07:15:00
1:35 AM,52.9,20.3,28,30.08,10.0,NNW,6.9,-,N/A,,Overcast,340,2012-11-03 07:35:00
1:55 AM,53.1,20.3,28,30.08,10.0,North,4.6,-,N/A,,Mostly Cloudy,350,2012-11-03 07:55:00
2:15 AM,52.0,20.5,29,30.08,10.0,NW,5.8,-,N/A,,Clear,320,2012-11-03 08:15:00
2:35 AM,51.8,20.3,29,30.09,10.0,NW,5.8,-,N/A,,Clear,320,2012-11-03 08:35:00
2:55 AM,52.2,21.2,30,30.09,10.0,NW,5.8,-,N/A,,Clear,320,2012-11-03 08:55:00
3:15 AM,52.0,21.2,30,30.09,10.0,NNW,5.8,-,N/A,,Clear,330,2012-11-03 09:15:00
3:35 AM,51.1,21.2,31,30.10,10.0,NNW,6.9,-,N/A,,Clear,330,2012-11-03 09:35:00
3:55 AM,51.6,20.7,30,30.10,10.0,NNW,9.2,-,N/A,,Clear,330,2012-11-03 09:55:00
4:15 AM,53.6,20.7,28,30.11,10.0,NNW,11.5,-,N/A,,Scattered Clouds,330,2012-11-03 10:15:00
4:35 AM,54.3,20.3,26,30.11,10.0,North,8.1,-,N/A,,Scattered Clouds,360,2012-11-03 10:35:00
4:55 AM,53.6,20.5,27,30.12,10.0,NNW,10.4,-,N/A,,Clear,330,2012-11-03 10:55:00
5:15 AM,54.1,21.0,27,30.13,10.0,North,10.4,-,N/A,,Clear,350,2012-11-03 11:15:00
5:35 AM,53.6,21.7,29,30.13,10.0,NNW,11.5,-,N/A,,Clear,340,2012-11-03 11:35:00
6:15 AM,52.0,23.0,32,30.15,10.0,NNW,10.4,-,N/A,,Clear,330,2012-11-03 12:15:00
6:35 AM,51.6,23.2,33,30.16,10.0,NW,8.1,-,N/A,,Clear,320,2012-11-03 12:35:00
7:15 AM,51.1,24.8,36,30.17,10.0,NNW,9.2,-,N/A,,Clear,340,2012-11-03 13:15:00
7:35 AM,50.9,25.3,37,30.17,10.0,NNW,9.2,-,N/A,,Clear,330,2012-11-03 13:35:00
8:15 AM,51.8,26.4,37,30.18,10.0,NNW,9.2,-,N/A,,Clear,340,2012-11-03 14:15:00
8:35 AM,51.8,26.8,38,30.19,10.0,NNW,8.1,-,N/A,,Clear,340,2012-11-03 14:35:00
8:55 AM,52.9,27.1,37,30.20,10.0,NNW,9.2,-,N/A,,Clear,340,2012-11-03 14:55:00
9:15 AM,54.1,27.5,36,30.21,10.0,NNW,10.4,-,N/A,,Clear,340,2012-11-03 15:15:00
9:35 AM,57.2,28.2,33,30.21,10.0,North,9.2,-,N/A,,Clear,350,2012-11-03 15:35:00
9:55 AM,59.2,29.1,32,30.21,10.0,North,5.8,-,N/A,,Clear,360,2012-11-03 15:55:00
10:15 AM,60.1,28.6,30,30.21,10.0,North,8.1,-,N/A,,Clear,360,2012-11-03 16:15:00
10:35 AM,60.4,29.1,31,30.21,10.0,NNE,10.4,-,N/A,,Clear,20,2012-11-03 16:35:00
10:55 AM,61.9,27.7,27,30.21,10.0,North,9.2,-,N/A,,Clear,350,2012-11-03 16:55:00
11:15 AM,63.1,27.9,26,30.21,10.0,North,8.1,-,N/A,,Clear,350,2012-11-03 17:15:00
11:35 AM,63.1,28.0,27,30.21,10.0,NNW,6.9,-,N/A,,Clear,330,2012-11-03 17:35:00
11:55 AM,64.0,28.0,26,30.21,10.0,North,9.2,-,N/A,,Scattered Clouds,350,2012-11-03 17:55:00
12:15 PM,65.8,28.0,24,30.20,10.0,North,10.4,-,N/A,,Scattered Clouds,360,2012-11-03 18:15:00
12:35 PM,66.6,27.9,23,30.19,10.0,North,9.2,-,N/A,,Scattered Clouds,350,2012-11-03 18:35:00
12:55 PM,67.1,27.0,22,30.19,10.0,North,6.9,-,N/A,,Clear,350,2012-11-03 18:55:00
1:15 PM,68.4,27.1,21,30.17,10.0,North,5.8,-,N/A,,Clear,350,2012-11-03 19:15:00
1:35 PM,69.3,26.4,20,30.17,10.0,North,8.1,16.1,N/A,,Clear,360,2012-11-03 19:35:00
1:55 PM,69.3,26.4,20,30.16,10.0,North,6.9,-,N/A,,Clear,360,2012-11-03 19:55:00
2:15 PM,69.8,26.6,20,30.15,10.0,North,3.5,-,N/A,,Clear,360,2012-11-03 20:15:00
2:35 PM,70.9,27.1,20,30.14,10.0,NNE,5.8,-,N/A,,Clear,20,2012-11-03 20:35:00
2:55 PM,71.4,27.7,20,30.13,10.0,North,4.6,-,N/A,,Clear,350,2012-11-03 20:55:00
3:15 PM,71.8,27.7,19,30.13,10.0,NNE,4.6,-,N/A,,Clear,30,2012-11-03 21:15:00
3:35 PM,72.3,27.5,19,30.13,10.0,NNW,4.6,-,N/A,,Clear,340,2012-11-03 21:35:00
4:15 PM,72.0,27.3,19,30.12,10.0,NE,3.5,-,N/A,,Clear,50,2012-11-03 22:15:00
4:35 PM,71.8,27.5,19,30.12,10.0,Calm,Calm,-,N/A,,Clear,0,2012-11-03 22:35:00
4:55 PM,71.8,27.3,19,30.12,10.0,NW,3.5,-,N/A,,Clear,310,2012-11-03 22:55:00
5:15 PM,71.6,26.6,19,30.13,10.0,NNW,4.6,-,N/A,,Clear,340,2012-11-03 23:15:00
5:35 PM,70.2,26.6,20,30.13,10.0,NNW,4.6,-,N/A,,Clear,330,2012-11-03 23:35:00
5:55 PM,68.7,26.1,20,30.13,10.0,NNW,4.6,-,N/A,,Clear,330,2012-11-03 23:55:00
6:15 PM,65.3,26.1,23,30.13,10.0,NNW,4.6,-,N/A,,Clear,340,2012-11-04 00:15:00
6:35 PM,63.0,25.7,24,30.13,10.0,NW,4.6,-,N/A,,Clear,310,2012-11-04 00:35:00
6:55 PM,59.4,24.8,27,30.14,10.0,NW,5.8,-,N/A,,Clear,320,2012-11-04 00:55:00
7:15 PM,58.3,24.4,27,30.14,10.0,NW,5.8,-,N/A,,Clear,310,2012-11-04 01:15:00
7:35 PM,59.0,25.2,27,30.15,10.0,NW,5.8,-,N/A,,Clear,310,2012-11-04 01:35:00
7:55 PM,55.8,24.4,30,30.15,10.0,NW,4.6,-,N/A,,Clear,310,2012-11-04 01:55:00
8:15 PM,54.7,24.4,31,30.15,10.0,NW,3.5,-,N/A,,Clear,310,2012-11-04 02:15:00
8:35 PM,53.8,24.1,32,30.15,10.0,WNW,3.5,-,N/A,,Clear,300,2012-11-04 02:35:00
8:55 PM,52.7,23.9,33,30.16,10.0,NNW,3.5,-,N/A,,Clear,330,2012-11-04 02:55:00
9:15 PM,52.0,24.4,34,30.16,10.0,West,3.5,-,N/A,,Clear,270,2012-11-04 03:15:00
9:35 PM,53.6,25.2,33,30.17,10.0,West,5.8,-,N/A,,Clear,260,2012-11-04 03:35:00
9:55 PM,53.6,25.5,34,30.17,10.0,West,3.5,-,N/A,,Clear,280,2012-11-04 03:55:00
10:15 PM,51.8,24.8,35,30.18,10.0,WNW,5.8,-,N/A,,Clear,300,2012-11-04 04:15:00
10:35 PM,50.7,24.6,36,30.18,10.0,NW,5.8,-,N/A,,Clear,310,2012-11-04 04:35:00
10:55 PM,51.3,24.6,35,30.19,10.0,Calm,Calm,-,N/A,,Clear,0,2012-11-04 04:55:00
11:35 PM,49.5,24.8,38,30.20,10.0,Calm,Calm,-,N/A,,Clear,0,2012-11-04 05:35:00
11:55 PM,50.0,24.4,37,30.20,10.0,NNW,4.6,-,N/A,,Clear,340,2012-11-04 05:55:00